Regional Weather Roundup
Issued by NWS

Home | Current Version | Previous Version | Text Only | Print | Product List | Glossary Off
Versions: 1 2 3 4 5 6 7 8 9 10 11 12 13 14 15 16 17 18 19 20 21 22 23 24 25 26 27 28 29 30 31 32 33 34 35 36 37 38 39 40 41 42 43 44 45 46 47 48 49 50

000
ASUS45 KCYS 030310
RWRWY

WYOMING REGIONAL WEATHER ROUNDUP
NATIONAL WEATHER SERVICE CHEYENNE WY
900 PM MDT WED SEP 02 2015

NOTE:  "FAIR" INDICATES FEW OR NO CLOUDS BELOW 12,000 FEET
WITH NO SIGNIFICANT WEATHER AND/OR OBSTRUCTIONS TO VISIBILITY.

WYZ001-030400-
YELLOWSTONE NATIONAL PARK

CITY           SKY/WX    TMP DP  RH WIND       PRES   REMARKS
LK YELLOWSTONE   N/A     52  38  58 CALM      30.12R
W YELLOWSTONE  NOT AVBL

$$
WYZ002>013-054>058-071-098>099-030400-
NORTHERN WYOMING

CITY           SKY/WX    TMP DP  RH WIND       PRES   REMARKS
JACKSON        FAIR      64  36  34 S7        30.01R
CODY           FAIR      75  32  20 SW7       29.86R
GREYBULL       FAIR      80  30  16 S5        29.74R
WORLAND        FAIR      78  30  17 S13       29.78R
SHERIDAN       FAIR      71  38  29 VRB3      29.76R
BUFFALO        FAIR      74  33  22 W8        29.87R
GILLETTE       FAIR      70  35  27 S13       29.83R
HULETT         FAIR      75  34  22 S8        29.85R
NEWCASTLE      FAIR      75  32  20 MISG      29.88R

$$
WYZ014>020-022>026-101>103-030400-
CENTRAL WYOMING

CITY           SKY/WX    TMP DP  RH WIND       PRES   REMARKS
BIG PINEY      FAIR      63  36  36 W8        30.10R
PINEDALE       FAIR      64  36  34 SW5       30.11R
DUBOIS         FAIR      64  30  27 W12       30.07R
LANDER         FAIR      75  34  22 SW12      29.93R
RIVERTON       FAIR      76  32  20 SW8       29.93R
CASPER         FAIR      68  30  24 SW9       29.95R
DOUGLAS        FAIR      70  36  28 SE5       29.96R

$$
WYZ021-027>030-104>119-030400-
SOUTHERN WYOMING

CITY           SKY/WX    TMP DP  RH WIND       PRES   REMARKS
EVANSTON       FAIR      67  33  28 S12       30.10R
KEMMERER       FAIR      63  32  31 W5        30.12S
FORT BRIDGER   CLEAR     70  32  24 SW12      30.14R
ROCK SPRINGS   MOCLDY    71  38  29 W13G24    30.10R
DIXON          FAIR      71  40  33 S9        30.15R
RAWLINS        FAIR      67  36  31 SW8       30.12R
SARATOGA       FAIR      64  41  42 S10       30.16R
LARAMIE        MOCLDY    64  41  42 SW8       30.17R
CHEYENNE       FAIR      73  39  29 W9        30.08R
TORRINGTON     FAIR      75  50  41 SE7       29.90R
PINE BLUFFS    FAIR      72  37  28 S9        30.01R

$$



USA.gov is the U.S. government's official web portal to all federal, state and local government web resources and services.